Location: Bruderhein
(53.8035°N, 112.9265°W)
Time: 03:08:53
(UTC+00:00)

Max Valier Satellite - Visible Passes

Search period start: 27 February 2024 00:00
Search period end: 08 March 2024 00:00
Orbit: 388 x 394 km, 97.1° (Epoch: 26 February)

Date Brightness Start Highest point End Pass type
(mag) Time Alt. Az. Time Alt. Az. Time Alt. Az.
27 Feb ? 02:52:49 10° S 02:55:52 64° WSW 02:58:56 10° NNW visible
28 Feb ? 02:00:19 10° SE 02:02:59 28° ENE 02:05:41 10° N visible
28 Feb ? 03:32:08 10° SSW 03:34:37 22° W 03:37:07 10° NW visible
29 Feb ? 02:38:17 10° SSE 02:41:21 81° ENE 02:44:26 10° NNW visible
01 Mar ? 01:46:02 10° ESE 01:48:20 20° ENE 01:50:40 10° NNE visible
01 Mar ? 03:16:59 10° SSW 03:19:46 32° W 03:22:35 10° NNW visible
02 Mar ? 02:23:24 10° SSE 02:26:23 51° ENE 02:29:23 10° N visible
02 Mar ? 03:56:53 10° WSW 03:58:16 12° W 03:59:40 10° WNW visible
03 Mar ? 03:01:31 10° S 03:04:30 49° W 03:07:30 10° NNW visible
04 Mar ? 02:08:12 10° SE 02:10:59 33° ENE 02:13:47 10° N visible
04 Mar ? 03:40:28 10° SW 03:42:40 18° W 03:44:52 10° NW visible
05 Mar ? 02:45:44 10° SSE 02:48:46 81° WSW 02:51:51 10° NNW visible
06 Mar ? 01:52:42 10° ESE 01:55:09 22° ENE 01:57:37 10° NNE visible
06 Mar ? 03:23:59 10° SSW 03:26:37 27° W 03:29:17 10° NW visible
07 Mar ? 02:29:38 10° SSE 02:32:37 61° ENE 02:35:39 10° N visible
07 Mar ? 04:03:48 10° WSW 04:04:33 11° W 04:05:16 10° WNW visible
